Home > Weather > Toronto > Past weeks

Flag for Canada Weather for the Past 2 Weeks in Toronto, Ontario, Canada

Now
55 °F

Partly sunny.


Feels Like: 55 °F
Forecast: 47 / 59 °F
Wind: 5 mph from Southeast

Location: Toronto Pearson International Airport

Current Time: May 5, 2016 at 3:59:02 PM

Latest Report: May 5, 2016 at 3:00 PM


Visibility: 15 mi

Pressure: 29.83 "Hg

Humidity: 67%

Dew Point: 45 °F

Location of TorontoLocation

Historic Weather in Toronto — Graph

°F

Toronto Temperature Yesterday

Maximum temperature yesterday: 61 °F (at 5:00 PM)
Minimum temperature yesterday: 43 °F (at 5:00 AM)
Average temperature yesterday: 52 °F

High & Low Weather Summary for the Past Weeks

 TemperatureHumidityPressure
High64 °F (Apr 22, 11:00 AM)94% (Apr 22, 12:00 AM)30.32 "Hg (Apr 22, 12:00 AM)
Low34 °F (Apr 24, 6:00 AM)13% (Apr 20, 5:00 PM)29.69 "Hg (May 4, 4:00 PM)
Average47 °F59%30.00 "Hg
* Reported Apr 20 2:00 PM — May 5 2:00 PM, Toronto, Weather by CustomWeather, © 2016

Note: Actual official high and low records may vary slightly from our data, if they occured in-between our weather recording intervals... More about our weather records

Advertising

Toronto Weather History for the Previous 24 Hours

Scroll right to see more
 ConditionsComfort  
Time TempWeatherWind HumidityBarometerVisibility
2:00 PM
Thu, May 5
57 °FBroken clouds.10 mph67%29.83 "Hg15 mi
1:00 PM55 °FPartly sunny.7 mph72%29.84 "Hg15 mi
12:00 PM57 °FPartly sunny.8 mph63%29.85 "Hg15 mi
11:00 AM55 °FPartly sunny.7 mph67%29.85 "Hg15 mi
10:00 AM52 °FOvercast.9 mph77%29.85 "Hg15 mi
9:00 AM50 °FOvercast.9 mph82%29.84 "Hg15 mi
8:00 AM50 °FOvercast.8 mph82%29.82 "Hg15 mi
7:00 AM48 °FPassing clouds.8 mph82%29.81 "Hg15 mi
6:00 AM46 °FPassing clouds.8 mph82%29.80 "Hg15 mi
5:00 AM46 °FPassing clouds.7 mph82%29.78 "Hg15 mi
4:00 AM46 °FPassing clouds.8 mph82%29.77 "Hg15 mi
3:00 AM46 °FPassing clouds.8 mph82%29.76 "Hg15 mi
2:00 AM48 °FPassing clouds.7 mph76%29.77 "Hg15 mi
1:00 AM50 °FPassing clouds.6 mph76%29.77 "Hg15 mi
12:00 AM50 °FPassing clouds.6 mph71%29.77 "Hg15 mi
11:00 PM
Wed, May 4
52 °FPassing clouds.7 mph67%29.77 "Hg15 mi
10:00 PM52 °FPassing clouds.5 mph67%29.76 "Hg15 mi
9:00 PM52 °FPartly sunny.6 mph67%29.74 "Hg15 mi
8:00 PM55 °FPartly sunny.10 mph55%29.73 "Hg15 mi
7:00 PM57 °FOvercast.14 mph44%29.71 "Hg15 mi
6:00 PM59 °FOvercast.9 mph45%29.70 "Hg15 mi
5:00 PM61 °FPartly sunny.12 mph45%29.69 "Hg15 mi
4:00 PM59 °FPartly sunny.8 mph48%29.69 "Hg15 mi
3:00 PM59 °FPartly sunny.7 mph48%29.70 "Hg15 mi
Weather by CustomWeather, © 2016

See weather overviewHow to use our weather pages